www.pogodaiklimat.ru

Погода и климат >> Архив погоды >> Беларусь >> Столбцы


ПОГОДА в Столбцах

  • Прогноз погоды в Столбцах
  • Монитор погоды в Столбцах

АРХИВ ПОГОДЫ в Столбцах

Время (UTC), дата Ветер
(напр.,м/с)
 
Видим.   Явления Облачность Т
(С)
Тd
(С)
f
(%)
Тe
(С)
Тes
(С)
Комфортность P
(гПа)
Po
(гПа)
Тmin
(С)
Tmax
(С)
R
(мм)
R24
(мм)
S
(см)
12 11.06 Ю 3 22 км 3/3 1000 м
[Cu med, cong]
+30.9 +13.2 34 +32 +40 жарко 1018.0 996.6
15 11.06 Ю 2 20 км 3/3 1000 м
[Cu med, cong]
+31.3 +14.0 35 +33 +37 жарко 1017.0 995.6
18 11.06 ЮВ 1 17 км ясно +28.5 +15.7 46 +32 +32 душно 1017.0 995.4 +32.0
21 11.06 штиль 0 н/о н/о +23.1 +15.9 64 +28 +28 душно 1018.0 996.0
00 12.06 штиль 0 н/о н/о +19.9 +16.3 80 +22 +22 комфорт 1017.0 994.8
03 12.06 штиль 0 н/о н/о +18.8 +15.8 83 +20 +21 1018.0 995.7 +18.4
06 12.06 штиль 0 15 км 4/0
[Ci fib]
+26.6 +17.1 56 +31 +37 душно 1017.0 995.3 +18.4
09 12.06 ЮЗ 1 20 км 4/4 1000 м
[Cu med, cong]
+30.8 +12.6 33 +32 +45 жарко 1017.0 995.6
12 12.06 ЮЗ 1 20 км 5/5 1000 м
[Cu med, cong]
+32.4 +12.6 30 +33 +40 жарко 1016.0 994.7
15 12.06 З 1 18 км 6/4
[Cu med, cong Ci fib]
+32.7 +12.3 29 +33 +36 жарко 1015.0 993.7
18 12.06 штиль 0 18 км 8/3 1000 м
[Sc Ci fib]
+27.7 +16.6 51 +31 +31 душно 1015.0 993.4 +33.5
21 12.06 штиль 0 н/о н/о +22.9 +17.1 70 +28 +28 душно 1016.0 994.1
00 13.06 штиль 0 н/о н/о +20.7 +16.5 77 +24 +24 комфорт 1017.0 994.9
03 13.06 штиль 0 н/о н/о +19.6 +16.4 82 +22 +22 комфорт 1017.0 994.8 +19.0
06 13.06 ЮВ 1 15 км ясно +27.6 +16.5 51 +31 +39 душно 1017.0 995.4 +19.0
09 13.06 Ю 3 20 км ясно +31.8 +13.5 33 +33 +46 жарко 1017.0 995.6
12 13.06 Ю 3 20 км 3/3 1000 м
[Cu med, cong]
+32.7 +12.3 29 +33 +41 жарко 1016.0 994.7
15 13.06 ЮВ 2 20 км гроза без осадков 8/8 870 м
[Cb calv]
+28.7 +14.9 43 +31 +31 жарко 1016.0 994.5
18 13.06 ЮВ 4 17 км {гроза} 6/0
[Ci fib]
+26.8 +14.5 47 +29 +29 жарко 1017.0 995.3 +33.7
21 13.06 ЮВ 2 н/о н/о +21.9 +15.3 66 +25 +25 комфорт 1018.0 995.9
00 14.06 ЮВ 2 н/о н/о +20.1 +15.9 77 +23 +23 комфорт 1018.0 995.8
03 14.06 ЮВ 1 н/о н/о +19.6 +16.1 80 +23 +23 комфорт 1018.0 995.8 +19.3
06 14.06 З 1 15 км 4/0
[Ci fib]
+26.3 +17.4 58 +30 +36 душно 1018.0 996.3 +19.3
09 14.06 З 2 20 км 4/4 1000 м
[Cu med, cong]
+30.6 +16.2 42 +34 +45 очень
душно
1017.0 995.6
12 14.06 СЗ 3-11
{11}
18 км гроза без осадков 8/8 660 м
[Cb calv]
+30.6 +13.4 35 +32 +32 жарко 1017.0 995.6
15 14.06 С 2 18 км {гроза} 8/8 720 м
[Cb calv]
+26.3 +16.5 55 +30 +30 душно 1017.0 995.3
18 14.06 С 1 18 км {гроза} 8/3 1000 м
[Sc Ci fib]
+25.6 +16.4 57 +29 +29 душно 1017.0 995.2 +33.0
21 14.06 штиль 0 н/о н/о +20.4 +17.2 82 +23 +23 комфорт 1019.0 996.8
00 15.06 штиль 0 н/о н/о +18.0 +16.2 89 +18 +18 1019.0 996.6
03 15.06 штиль 0 н/о н/о +16.5 +15.4 93 +16 +17 1019.0 996.5 +16.2
06 15.06 С 1 15 км ясно +21.5 +15.6 69 +25 +33 комфорт 1019.0 996.9 +16.2
09 15.06 СВ 1 20 км ясно +25.3 +13.5 48 +27 +46 жарко 1018.0 996.2
12 15.06 С 1 20 км ясно +27.5 +9.8 33 +28 +45 жарко 1017.0 995.3
15 15.06 СЗ 1 20 км 8/8 800 м
[Cu med, cong]
+28.3 +9.0 30 +28 +28 жарко 1015.0 993.4
18 15.06 штиль 0 17 км 3/0
[Ci fib]
+24.6 +11.2 43 +26 +26 жарко 1015.0 993.2 +28.8
21 15.06 штиль 0 н/о н/о +20.4 +9.9 51 +22 +22 комфорт 1016.0 993.8
00 16.06 В 1 н/о н/о +18.7 +10.0 57 +20 +20 1016.0 993.7
03 16.06 ЮВ 1 н/о н/о +17.1 +10.9 67 +18 +19 1015.0 992.6 +17.0
06 16.06 ЮВ 2 15 км 9/3 600 м
[Cu hum Ac lent Cs]
+20.0 +11.5 58 +22 +22 комфорт 1015.0 992.8 +17.0
09 16.06 В 1 18 км 9/4 600 м
[Cb calv Ac lent Ci sp]
+24.4 +13.9 52 +27 +27 жарко 1015.0 993.2
12 16.06 ЮВ 3 15 км 8/0
[Cs]
+27.2 +13.5 43 +29 +29 жарко 1013.0 991.4
15 16.06 В 1
{14}
10 км {гроза, ливн. осадки} 8/5 600 м
[Cb calv Cs]
+20.9 +17.5 81 +26 +26 душно 1014.0 992.0
18 16.06 штиль 0 8000 м дымка {гроза, ливн. осадки} 9/9 840 м
[Cb calv]
+19.4 +15.7 79 +21 +21 комфорт 1014.0 991.8 +27.6 5
21 16.06 штиль 0 н/о н/о +17.0 +15.5 91 +17 +17 1015.0 992.6
00 17.06 штиль 0 н/о н/о +15.4 +14.6 95 +15 +15 1015.0 992.5
03 17.06 СЗ 2 н/о н/о +14.2 +13.9 98 +14 +14 1016.0 993.4 +13.9
06 17.06 С 2 9000 м дымка 9/9 870 м
[Cb calv]
+18.3 +15.5 84 +19 +19 1016.0 993.7 +13.9
09 17.06 СЗ 3 9000 м дымка 9/9 570 м
[Cb calv]
+19.5 +14.5 73 +21 +21 комфорт 1017.0 994.8
12 17.06 СЗ 3 10 км 10 баллов +20.5 +13.5 64 +23 +23 комфорт 1018.0 995.8
15 17.06 СЗ 3 17 км 9/9 870 м
[Cb calv]
+20.9 +14.3 66 +24 +24 комфорт 1017.0 994.9
18 17.06 СЗ 2 9000 м дымка 10 баллов +19.7 +15.5 77 +22 +22 комфорт 1017.0 994.8 +21.3
21 17.06 СЗ 1 н/о н/о +17.5 +15.8 90 +19 +19 1018.0 995.6
00 18.06 СЗ 2 н/о н/о +17.0 +14.8 87 +17 +17 1019.0 996.5
03 18.06 С 2 н/о н/о +15.0 +14.4 96 +15 +15 1020.0 997.4 +14.7
06 18.06 С 1 9000 м дымка 3 балла +19.2 +14.2 73 +22 +27 комфорт 1020.0 997.7 +14.7
09 18.06 С 2 10 км 3 балла +23.0 +12.3 51 +26 +37 жарко 1020.0 997.9

 

Местоположение метеостанции Столбцы (Минская область, Беларусь): широта 53.48 долгота 26.73 высота над уровнем моря 190 м.

В архиве по умолчанию представлена погода в Столбцах за последнюю неделю. Архивные данные за месяц целиком и за предыдущие месяцы, начиная с января 2011 года, Вы можете получить, выбрав интересующий диапазон дат из раскрывающегося списка и нажав кнопку "Ввод!".


*Определитесь, кто Вы:
робот инопланетянин человек

Внимание! Время в таблицах - всемирное. Для получения местного времени необходимо прибавить поправку, которая равна 3 ч.

Смотрите также архив погоды в соседних городах и на ближайших метеорологических станциях:

Погода в Новогрудке (Гродненская область, Беларусь) (60 км)
Погода в Барановичах (Брестская область, Беларусь) (64 км)
Погода в Воложине (Минская область, Беларусь) (69 км)
Погода в Слуцке (Минская область, Беларусь) (74 км)
Погода в Минске (город Минск, Беларусь) (83 км)
Погода в Ганцевичах (Брестская область, Беларусь) (83 км)
Погода в Марьиной Горке (Минская область, Беларусь) (93 км)
Погода в Лиде (Гродненская область, Беларусь) (104 км)
Погода в Вилейке (Минская область, Беларусь) (116 км)
Погода в Ошмянах (Гродненская область, Беларусь) (118 км)

Пояснения к столбцам:

Ветер - указаны скорость ветра в м/с - средняя за 10 мин, порывы в срок и между сроками (в фигурных скобках) и направление, откуда дует ветер: С - северный, СВ - северо-восточный, В - восточный, ЮВ - юго-восточный, Ю - южный, ЮЗ - юго-западный, З - западный, СЗ - северо-западный.
Видимость - горизонтальная дальность видимости в метрах или километрах. При видимости от 1 до 10 км при отсутствии осадков обычно наблюдается дымка, при ухудшении видимости до 1 км и менее - туман. В сухую погоду видимость может ухудшаться дымом, пылью или мглою.
Явления - указаны атмосферные явления, наблюдавшиеся в срок или в последний час перед сроком; фигурными скобками обозначены явления, наблюдавшиеся между сроками (за 1-3 часа до срока); квадратными скобками обозначены град или гололедные отложения с указанием их диаметра в мм.
Облачность - указаны через наклонную черту общая и нижняя облачность в баллах и высота нижней границы облаков в метрах; квадратными скобками обозначены формы облаков: Ci - перистые, Cs - перисто-слоистые, Cc - перисто-кучевые, Ac - высококучевые, As - высокослоистые, Sc - слоисто-кучевые, Ns - слоисто-дождевые, Cu - кучевые, Cb - кучево-дождевые. Подробнее классификацию облаков см. в Атласе облаков (PDF).
T - Температура воздуха - температура, измеренная на высоте 2 м над землей.
Td - Температура точки росы - температура, при понижении до которой содержащийся в воздухе водяной пар достигнет насыщения.
f - Относительная влажность воздуха - влажноcть воздуха, измеренная на высоте 2 м над землей.
Te - Эффективная температура - температура, которую ощущает одетый по сезону человек в тени. Характеристика душности погоды. При расчете учитывается влияние влажности воздуха и скорости ветра на теплоощущения человека.
Tes - Эффективная температура на солнце - температура, которую ощущает человек, с поправкой на солнечный нагрев. Характеристика знойности погоды. Зависит от высоты солнца над горизонтом, облачности и скорости ветра. Ночью, в пасмурную погоду, а также при ветре 12 м/с и более поправка равна нулю.
P - Атмосферное давление - приведенное к уровню моря атмосферное давление.
Po - Атмосферное давление - измеренное на уровне метеостанции атмосферное давление.
Tmin - Минимальная температура - минимум температуры воздуха на высоте 2 м над землей.
Tmax - Максимальная температура - максимум температуры воздуха на высоте 2 м над землей.
R - Количество осадков - Количество выпавших осадков за период времени, мм. При наведении курсора мыши на число - период времени, за который выпало указанное количество осадков.
R24 - Количество осадков - Количество выпавших осадков за 24 часа, мм.
S - Снежный покров - Высота снежного покрова, см. При наведении курсора мыши на число - состояние снежного покрова и степень покрытия местности в баллах.